Overview Statistics Trail Chart Weather Telemetry Raw packets
 

This is the latest recevied weather packets stored in our database for station/object N5CSU. If no packets are shown the sender has not sent any weather packets the latest 10 day(s).

<< 109 110 111 112 113 114 >>
Time Temp. Humidity Pressure Rain* Wind** Luminosity Snow
1787790628 33.89° C 50% 1011.7 hPa 0 mm - 2 W/m² -
1787790322 33.89° C 51% 1011.7 hPa 0 mm - 1 W/m² -
1787790018 33.89° C 51% 1011.8 hPa 0 mm - 1 W/m² -
1787789714 33.33° C 53% 1012 hPa 0 mm - 1 W/m² -
1787789409 33.33° C 53% 1011.6 hPa 0 mm - 1 W/m² -
1787789103 33.89° C 54% 1012 hPa 0 mm - 1 W/m² -
1787788807 33.89° C 54% 1011.7 hPa 0 mm - 1 W/m² -
1787788500 33.89° C 52% 1011.9 hPa 0 mm - 2 W/m² -
1787788198 33.89° C 53% 1012 hPa 0 mm - 2 W/m² -
1787787890 34.44° C 52% 1012 hPa 0 mm - 2 W/m² -
1787787585 34.44° C 50% 1012.2 hPa 0 mm - 3 W/m² -
1787787279 35° C 50% 1012.3 hPa 0 mm - 4 W/m² -
1787786978 35° C 49% 1012.1 hPa 0 mm - 4 W/m² -
1787786674 35° C 49% 1012 hPa 0 mm - 4 W/m² -
1787786373 35.56° C 47% 1012.1 hPa 0 mm - 4 W/m² -
1787786069 36.11° C 45% 1012.1 hPa 0 mm - 3 W/m² -
1787785765 36.11° C 44% 1011.6 hPa 0 mm - 3 W/m² -
1787785460 36.67° C 42% 1011.8 hPa 0 mm - 4 W/m² -
1787785159 36.67° C 42% 1012 hPa 0 mm - 5 W/m² -
1787784855 37.22° C 41% 1011.7 hPa 0 mm - 11 W/m² -
1787784553 37.22° C 43% 1011.8 hPa 0 mm - 18 W/m² -
1787784247 37.22° C 42% 1012 hPa 0 mm - 28 W/m² -
1787783943 37.78° C 41% 1012 hPa 0 mm - 10 W/m² -
1787783639 37.78° C 41% 1012.2 hPa 0 mm - 16 W/m² -
1787783338 37.78° C 41% 1012.3 hPa 0 mm - 13 W/m² -

* Rain latest hour (hover to see other rain measurements)
** Current wind speed in m/s (hover to see current wind gust speed)